Banff, Alberta

3:09 AM MDT on May 26, 2018 (GMT -0600)
Banff

Weather History for CWZG - May, 2013

Change the Weather History Date:

Wednesday, May 22, 2013

  Actual Average (WUND) Record (WUND)
Temperature  
Mean Temperature 48 °F -  
Max Temperature 55 °F - - (-1)
Min Temperature 41 °F - - (-1)
Degree Days  
Heating Degree Days 17    
Moisture  
Dew Point 31 °F    
Average Humidity 60    
Maximum Humidity 92    
Minimum Humidity 24    
Precipitation  
Precipitation 0.06 in - - ()
Sea Level Pressure  
Sea Level Pressure 29.98 in    
Wind  
Wind Speed 7 mph ()    
Max Wind Speed 12 mph    
Max Gust Speed 20 mph    
Averages and records for this station are not official NWS values.
T = Trace of Precipitation, MM = Missing Value Source: Averaged Metar Reports

Daily Weather History Graph

Daily Weather History Graph

Search for Another Location

Airport or City:

Astronomy

May. 22, 2013 Rise Set
Actual Time 5:41 AM MDT 9:36 PM MDT
Civil Twilight 4:59 AM MDT 10:19 PM MDT
Nautical Twilight 3:59 AM MDT 11:20 PM MDT
Astronomical Twilight 2:11 AM MDT 1:16 AM MDT
Moon 6:49 PM MDT (5/22) 4:08 AM MDT (5/22)
Length of Visible Light 17h 20m
Length of Day
15h 55m
Waxing Gibbous, 92% of the Moon is Illuminated
May 22
Waxing Gibbous
May 24
Full
May 31
Last Quarter
Jun 8
New
Jun 16
First Quarter

Hourly Weather History & Observations

Time (MDT) Temp. Windchill Dew Point Humidity Pressure Visibility Wind Dir Wind Speed Gust Speed Precip Events Conditions
12:00 AM 55.8 °F - 19.4 °F 24% 29.86 in - ENE 11.5 mph 18.4 mph N/A   Unknown
1:00 AM 54.3 °F - 21.9 °F 28% - - ENE 8.1 mph - N/A   Unknown
2:00 AM 52.9 °F - 21.9 °F 30% - - ENE 6.9 mph - N/A   Unknown
3:00 AM 51.4 °F - 21.6 °F 31% 29.86 in - NE 8.1 mph - N/A   Unknown
4:00 AM 50.4 °F - 21.9 °F 33% 29.86 in - ENE 8.1 mph - N/A   Unknown
5:00 AM 48.9 °F - 24.4 °F 38% 29.88 in - ENE 8.1 mph - N/A   Unknown
6:00 AM 47.7 °F - 25.0 °F 41% 29.88 in - ENE 6.9 mph - N/A   Unknown
7:00 AM 48.0 °F - 26.8 °F 44% 29.89 in - NE 5.8 mph - N/A   Unknown
8:00 AM 49.1 °F - 28.6 °F 45% 29.89 in - ENE 8.1 mph - N/A   Unknown
9:00 AM 47.7 °F - 29.8 °F 50% 29.93 in - NE 9.2 mph - N/A   Unknown
10:00 AM 47.7 °F - 27.3 °F 45% 29.95 in - NE 9.2 mph - N/A   Unknown
11:00 AM 47.7 °F - 28.8 °F 48% 29.97 in - ENE 9.2 mph 19.6 mph N/A   Unknown
12:00 PM 46.2 °F 41.7 °F 31.3 °F 56% 29.99 in - ENE 9.2 mph 18.4 mph N/A   Unknown
1:00 PM 45.0 °F 41.2 °F 34.9 °F 68% 30.01 in - NE 6.9 mph - N/A   Unknown
2:00 PM 43.9 °F 39.9 °F 36.9 °F 76% 30.03 in - East 6.9 mph - N/A   Unknown
3:00 PM 43.9 °F 39.9 °F 38.8 °F 82% 30.04 in - ENE 6.9 mph - N/A   Unknown
4:00 PM 43.7 °F 38.6 °F 39.2 °F 84% 30.07 in - NNE 9.2 mph - N/A   Unknown
5:00 PM 43.3 °F 38.1 °F 38.3 °F 82% 30.07 in - NE 9.2 mph - N/A   Unknown
6:00 PM 41.9 °F 36.3 °F 38.5 °F 88% 30.09 in - ENE 9.2 mph 19.6 mph N/A   Unknown
7:00 PM 41.2 °F 36.6 °F 39.0 °F 92% 30.08 in - East 6.9 mph - 0.05 in   Unknown
8:00 PM 41.9 °F 39.0 °F 39.2 °F 90% 30.08 in - East 4.6 mph - N/A   Unknown
9:00 PM 42.3 °F 37.9 °F 39.4 °F 90% 30.08 in - East 6.9 mph - N/A   Unknown
10:00 PM 42.1 °F 39.2 °F 39.6 °F 91% 30.08 in - SE 4.6 mph - 0.01 in   Unknown
11:00 PM 43.2 °F 40.5 °F 39.4 °F 86% 30.07 in - East 4.6 mph - N/A   Unknown